Regional Weather Roundup
Issued by NWS

Home | Current Version | Previous Version | Graphics & Text | Print | Product List | Glossary On
Versions: 1 2 3 4 5 6 7 8 9 10 11 12 13 14 15 16 17 18 19 20 21 22 23 24 25 26 27 28 29 30 31 32 33 34 35 36 37 38 39 40 41 42 43 44 45 46 47 48 49 50
000
ASUS43 KLSX 231259
RWRMO

WEATHER SUMMARY FOR MISSOURI
NATIONAL WEATHER SERVICE SPRINGFIELD MO
800 AM CDT WED APR 23 2014

NOTE: "FAIR" INDICATES FEW OR NO CLOUDS BELOW 12,000 FEET WITH NO
       SIGNIFICANT WEATHER AND/OR OBSTRUCTIONS TO VISIBILITY.
       CURRENT SKY AND/OR WEATHER CONDITIONS ARE NOT AVAILABLE FOR
       CHILLICOTHE AND FARMINGTON.

MOZ001>031-035>038-043-044-053-054-231400-
...NORTHERN AND WESTERN MISSOURI...

CITY           SKY/WX    TMP DP  RH WIND       PRES   REMARKS
KANSAS CTY INT CLOUDY    55  36  48 SE12      30.01R
KANSAS C DTWN  CLOUDY    57  34  41 SE7       30.01R
LEE`S SUMMIT   CLOUDY    54  35  48 SE10      30.02R
ST JOSEPH      CLOUDY    56  35  45 SE13      30.00R
KIRKSVILLE     PTSUNNY   48  34  58 SE13      30.09R

$$
MOZ066>068-077>081-088>096-101>105-231400-
...SOUTHWEST MISSOURI...

CITY           SKY/WX    TMP DP  RH WIND       PRES   REMARKS
SPRINGFIELD    SUNNY     55  36  48 SE10      30.03R
JOPLIN         MOSUNNY   54  38  54 E10       29.99R

$$
MOZ032>034-039>042-045>050-055>058-069>072-231400-
...CENTRAL MISSOURI...

CITY           SKY/WX    TMP DP  RH WIND       PRES   REMARKS
COLUMBIA       PTSUNNY   50  34  54 E12       30.08R
JEFFERSON CITY PTSUNNY   47  40  76 CALM      30.09R
ROLLA          MOSUNNY   50  34  54 E10       30.06R
SEDALIA        PTSUNNY   52  37  56 SE12      30.05F
OSAGE BEACH    MOSUNNY   48  36  61 SE5       30.09R

$$
MOZ051-052-059>065-231400-
...EAST CENTRAL MISSOURI...

CITY           SKY/WX    TMP DP  RH WIND       PRES   REMARKS
ST LOUIS INTL  MOSUNNY   49  35  58 E12       30.12R
SPIRIT OF STL  MOSUNNY   49  39  68 E9        30.11R
ST CHARLES     SUNNY     48  36  63 E14       30.13R

$$
MOZ072>076-082>087-097>100-106>115-231400-
...SOUTH CENTRAL AND SOUTHEAST MISSOURI...

CITY           SKY/WX    TMP DP  RH WIND       PRES   REMARKS
CAPE GIRARDEAU SUNNY     52  42  69 NE9       30.09R
FARMINGTON     SUNNY     48  37  66 E3        30.11S
POPLAR BLUFF   SUNNY     53  40  61 N7        30.07R
WEST PLAINS    MOSUNNY   53  35  50 E6        30.08R

$$



USA.gov is the U.S. government's official web portal to all federal, state and local government web resources and services.